Simultaneous Nadir Overpasses (SNOs) Predictions

Prediction of SNOs near US between AQUA and NPP Satellite Orbit:

Table of predicted SNOs near US for the next 10.0 days since TLE Epoch: 7/13/2012
Index Date (AQUA) Time (AQUA) AQUA Lat,Lon Date (NPP) Time (NPP) NPP Lat,Lon Distance(km) Time Diff (sec)
1 07/16/2012 07:19:36 47.71, -76.97 07/16/2012 07:18:58 48.06, -79.14 166.49 38
2 07/16/2012 08:57:52 49.91,-100.80 07/16/2012 08:59:47 50.41,-103.49 199.60 115
3 07/18/2012 18:17:06 49.96, -80.23 07/18/2012 18:08:46 50.36, -81.98 132.47 500
4 07/18/2012 19:55:59 49.95,-104.95 07/18/2012 19:50:03 49.62,-107.02 153.37 356
5 07/18/2012 21:31:06 36.48,-125.00 07/18/2012 21:27:38 36.01,-127.45 226.41 208



His
